Spokane Fairchild, WA
on Saturday, February 2, 2013

Saturday
Previous Day Next Day
Daily Summary
 ActualAverage (KGEG)Record (KGEG)
Temperature
Mean Temperature °F 32°F  
Max Temperature 32°F 37°F 56°F (1962)
Min Temperature 19°F 26°F -24°F (1996)
Degree Days
Heating Degree Days 40 34  
Month to date heating degree days 68  
Since 1 July heating degree days 4001  
Cooling Degree Days 0 0  
Month to date cooling degree days 0  
Year to date cooling degree days 0  
Moisture
Dew Point 24°F   
Average Humidity 100    
Maximum Humidity 100    
Minimum Humidity 93    
Precipitation
Precipitation 0.00 in 0.05 in 0.55 in (1881)
Month to date precipitation 0.09  
Year to date precipitation 1.88  
Snow
Snow 0.00 in 0.30 in 5.00 in (1938)
Month to date snowfall 0.6  
Since 1 July snowfall 34.1  
Snow Depth 1.00 in   
Wind
Wind Speed 3 mph   
Max Wind Speed 9 mph   
Max Gust Speed mph   
Visibility 2 miles   
Events Fog , Snow   

Key: T is trace of precipitation, MM is missing value
Source: NWS Daily Summary
Time(PST)TemperatureDew PointHumidity Pressure Visibility Wind DirectionWind SpeedGust SpeedPrecipitationEvents Conditions
12:11 AM 21.2°F 21.2°F 100% 30.41 in 8.0 miles North 2.3 mph - N/A   Partly Cloudy
12:20 AM 21.2°F 21.2°F 100% 30.41 in 10.0 miles NNW 3.5 mph - N/A Snow Light Snow
12:23 AM 21.2°F 21.2°F 100% 30.41 in 10.0 miles NNW 3.5 mph - N/A   Clear
12:55 AM 21.2°F 21.2°F 100% 30.42 in 10.0 miles ENE 3.5 mph - N/A Snow Light Snow
12:58 AM 20.7°F 20.7°F 100% 30.52 in 9.0 miles NE 4.6 mph - 0.00 in Snow Light Snow
1:03 AM 19.4°F 19.4°F 100% 30.42 in 1.8 miles NNE 3.5 mph - N/A Snow Light Snow
1:08 AM 19.4°F 19.4°F 100% 30.42 in 0.8 miles NE 2.3 mph - N/A   Clear
1:10 AM 19.4°F 19.4°F 100% 30.42 in 0.8 miles NE 2.3 mph - N/A Snow Light Snow
1:11 AM 19.4°F 19.4°F 100% 30.41 in 0.8 miles NE 2.3 mph - N/A Snow Light Snow
1:16 AM 19.4°F 19.4°F 100% 30.41 in 0.8 miles ENE 1.2 mph - N/A Snow Light Snow
1:21 AM 19.4°F 19.4°F 100% 30.42 in 0.8 miles ENE 2.3 mph - N/A Snow Light Snow
1:26 AM 19.4°F 19.4°F 100% 30.42 in 1.0 miles NNE 2.3 mph - N/A Snow Light Snow
1:31 AM 21.2°F 21.2°F 100% 30.42 in 1.2 miles NNE 2.3 mph - N/A   Partly Cloudy
1:32 AM 21.2°F 21.2°F 100% 30.42 in 1.2 miles NNE 2.3 mph - N/A Snow Light Snow
1:33 AM 21.2°F 21.2°F 100% 30.42 in 1.2 miles North 2.3 mph - N/A   Partly Cloudy
1:48 AM 21.2°F 21.2°F 100% 30.43 in 1.5 miles North 3.5 mph - N/A   Partly Cloudy
1:53 AM 21.2°F 21.2°F 100% 30.43 in 2.0 miles North 3.5 mph - N/A   Partly Cloudy
1:58 AM 20.7°F 20.7°F 100% 30.53 in 2.5 miles North 3.5 mph - 0.00 in   Partly Cloudy
2:03 AM 21.2°F 21.2°F 100% 30.43 in 3.0 miles North 2.3 mph - N/A   Partly Cloudy
2:08 AM 21.2°F 21.2°F 100% 30.43 in 1.8 miles NNE 2.3 mph - N/A   Partly Cloudy
2:13 AM 21.2°F 21.2°F 100% 30.43 in 1.0 miles ENE 1.2 mph - N/A   Mist
2:23 AM 21.2°F 21.2°F 100% 30.43 in 0.8 miles NE 1.2 mph - N/A   Mist
2:28 AM 21.2°F 21.2°F 100% 30.43 in 0.8 miles North 1.2 mph - N/A   Mist
2:33 AM 21.2°F 21.2°F 100% 30.43 in 1.0 miles NNW 3.5 mph - N/A   Mist
2:34 AM 21.2°F 21.2°F 100% 30.43 in 1.0 miles NNW 3.5 mph - N/A Snow Light Snow
2:39 AM 21.2°F 21.2°F 100% 30.43 in 1.5 miles NNW 4.6 mph - N/A Snow Light Snow
2:44 AM 19.4°F 19.4°F 100% 30.43 in 3.0 miles North 4.6 mph - N/A Snow Light Snow
2:46 AM 21.2°F 21.2°F 100% 30.43 in 5.0 miles North 4.6 mph - N/A   Mostly Cloudy
2:58 AM 20.5°F 20.5°F 100% 30.53 in 10.0 miles NNE 3.5 mph - 0.00 in   Overcast
3:13 AM 21.2°F 21.2°F 100% 30.43 in 7.0 miles North 3.5 mph - N/A   Overcast
3:17 AM 21.2°F 21.2°F 100% 30.43 in 2.5 miles NNE 3.5 mph - N/A   Overcast
3:20 AM 21.2°F 21.2°F 100% 30.43 in 1.5 miles NNE 3.5 mph - N/A   Light Freezing Drizzle
3:21 AM 21.2°F 21.2°F 100% 30.43 in 1.2 miles NNE 3.5 mph - N/A Snow Light Snow
3:26 AM 21.2°F 21.2°F 100% 30.43 in 0.8 miles NNE 2.3 mph - N/A Snow Light Snow
3:31 AM 21.2°F 21.2°F 100% 30.42 in 0.5 miles Calm Calm - N/A Fog , Snow Light Freezing Fog
3:36 AM 21.2°F 21.2°F 100% 30.43 in 0.5 miles NE 2.3 mph - N/A Fog , Snow Light Freezing Fog
3:41 AM 21.2°F 21.2°F 100% 30.43 in 0.5 miles North 2.3 mph - N/A Fog , Snow Light Freezing Fog
3:58 AM 21.7°F 21.7°F 100% 30.53 in 0.5 miles North 3.5 mph - N/A Fog Light Freezing Fog
3:59 AM 21.2°F 21.2°F 100% 30.43 in 0.5 miles North 3.5 mph - N/A Fog , Snow Light Freezing Fog
4:14 AM 23.0°F 23.0°F 100% 30.43 in 0.5 miles North 3.5 mph - N/A Fog , Snow Light Freezing Fog
4:19 AM 24.8°F 23.0°F 93% 30.44 in 0.5 miles NNE 3.5 mph - N/A Fog Light Freezing Fog
4:20 AM 24.8°F 23.0°F 93% 30.44 in 0.5 miles North 2.3 mph - N/A Fog Light Freezing Fog
4:24 AM 24.8°F 23.0°F 93% 30.44 in 0.5 miles North 2.3 mph - N/A Fog Light Freezing Fog
4:58 AM - - N/A% 30.53 in 0.5 miles NNE 3.5 mph - N/A Fog Light Freezing Fog
4:59 AM 24.8°F - N/A% 30.43 in 0.5 miles NNE 3.5 mph - N/A Fog Light Freezing Fog
5:58 AM 24.8°F 24.8°F 100% 30.52 in 0.5 miles NE 3.5 mph - N/A Fog Light Freezing Fog
6:58 AM 24.8°F 24.8°F 100% 30.52 in 0.5 miles NNE 4.6 mph - N/A Fog Light Freezing Fog
6:59 AM - - N/A% 30.42 in 0.5 miles NNE 3.5 mph - N/A   Light Freezing Drizzle
7:16 AM 24.8°F 24.8°F 100% 30.52 in 0.2 miles NNE 4.6 mph - N/A Fog Light Freezing Fog
7:55 AM 25.5°F 25.5°F 100% 30.53 in 0.2 miles NNE 4.6 mph - 0.00 in Fog Light Freezing Fog
8:55 AM 27.0°F 27.0°F 100% 30.54 in 0.5 miles NNE 4.6 mph - N/A Fog Light Freezing Fog
9:55 AM 28.6°F 28.6°F 100% 30.53 in 0.5 miles NNE 8.1 mph - N/A Fog Light Freezing Fog
10:55 AM 29.5°F 29.5°F 100% 30.53 in 0.5 miles NE 9.2 mph - N/A Fog Light Freezing Fog
11:55 AM 30.2°F 30.2°F 100% 30.51 in 0.5 miles NNE 8.1 mph - N/A Fog Light Freezing Fog
12:40 PM 30.2°F 30.2°F 100% 30.50 in 0.2 miles NNE 9.2 mph - N/A Fog Light Freezing Fog
12:55 PM 30.2°F 30.2°F 100% 30.49 in 0.2 miles North 8.1 mph - N/A Fog Light Freezing Fog
1:55 PM 32.0°F 32.0°F 100% 30.47 in 0.2 miles NNE 8.1 mph - N/A Fog Light Freezing Fog
2:55 PM 32.0°F 32.0°F 100% 30.45 in 0.2 miles NNE 8.1 mph - N/A Fog Light Freezing Fog
3:55 PM 30.9°F 30.9°F 100% 30.44 in 0.2 miles NE 9.2 mph - N/A Fog Light Freezing Fog
4:55 PM 30.2°F 30.2°F 100% 30.41 in 0.2 miles NNE 6.9 mph - N/A Fog Light Freezing Fog
5:55 PM 30.2°F 30.2°F 100% 30.39 in 0.5 miles NNE 6.9 mph - N/A Fog Light Freezing Fog
6:58 PM 30.2°F 30.2°F 100% 30.36 in 0.5 miles NNE 5.8 mph - N/A Fog Light Freezing Fog
7:58 PM 29.8°F 30.2°F 100% 30.34 in 0.5 miles NNE 4.6 mph - N/A Fog Light Freezing Fog
8:58 PM 30.2°F 30.2°F 100% 30.34 in 0.5 miles NW 3.5 mph - N/A Fog Light Freezing Fog
9:39 PM 28.4°F 28.4°F 100% 30.32 in 0.8 miles Calm Calm - N/A   Mist
9:58 PM 28.4°F 28.4°F 100% 30.32 in 0.8 miles Calm Calm - N/A   Mist
10:04 PM 28.4°F 28.4°F 100% 30.32 in 1.0 miles Calm Calm - N/A   Mist
10:31 PM 28.4°F 28.4°F 100% 30.31 in 0.8 miles Calm Calm - N/A   Mist
10:41 PM 28.4°F 28.4°F 100% 30.31 in 0.5 miles Calm Calm - N/A Fog Light Freezing Fog
10:58 PM 28.4°F 28.4°F 100% 30.31 in 0.8 miles Calm Calm - N/A   Mist
11:54 PM 28.4°F 28.4°F 100% 30.30 in 0.5 miles Calm Calm - N/A Fog Light Freezing Fog
11:58 PM 28.0°F 28.4°F 100% 30.29 in 0.5 miles Calm Calm - N/A Fog Light Freezing Fog
Moon Phase
Feb. 02 Feb. 03 Feb. 10 Feb. 17 Feb. 25
Sunrise:07:15 AM (PST) Moon Rise:No Moon Rise/
Sunset:04:53 PM (PST) Moon Set:09:55 AM (PST)2/2

Copyright © 2014 The Weather Underground, Inc.